Regional Weather Roundup
Issued by NWS State College, PA

Home | Current Version | Previous Version | Text Only | Print | Product List | Glossary Off
Versions: 1 2 3 4 5 6 7 8 9 10 11 12 13 14 15 16 17 18 19 20 21 22 23 24 25 26 27 28 29 30 31 32 33 34 35 36 37 38 39 40 41 42 43 44 45 46 47 48 49 50

000
ASUS41 KCTP 020310
RWRCTP

REGIONAL WEATHER ROUNDUP
NATIONAL WEATHER SERVICE STATE COLLEGE PA
1100 PM EDT WED OCT 01 2014

Note: "fair" indicates few or no clouds below 12,000 feet with no
significant weather and/or obstructions to visibility.

* = STATION THAT DOES NOT REPORT PRECIPITATION /E.G. RAIN...SNOW...ETC/
    THUNDER OR FOG.

PAZ002>004-007>009-013>016-020>023-029>032-020400-
WESTERN PENNSYLVANIA

CITY           SKY/WX    TMP DP  RH WIND       PRES   REMARKS
ERIE           CLOUDY    63  60  90 E8        30.05S FOG
MEADVILLE      PTCLDY    57  56  96 CALM      30.06S FOG
FRANKLIN*      MOCLDY    54  52  94 CALM      30.08S VSB 3/4
NEW CASTLE     FOG       51  51 100 CALM      30.07S VSB 1/4
BEAVER COUNTY  NOT AVBL
BUTLER*        CLOUDY    55  52  88 CALM      30.09R
PITTSBURGH INT PTCLDY    55  53  93 CALM      30.06R FOG
PITTSBURGH     PTCLDY    59  55  87 S3        30.06R FOG
INDIANA*       PTCLDY    57  55  94 CALM      30.11S
LATROBE        CLEAR     57  57 100 CALM      30.07S FOG
WASHINGTON CO* CLOUDY    46  45  93 CALM      30.08R VSB 1/4
$$

PAZ004>006-010>012-017>019-024>028-033>037-041-042-045-046-049>053-020400-
CENTRAL PENNSYLVANIA

CITY           SKY/WX    TMP DP  RH WIND       PRES   REMARKS
BRADFORD       CLEAR     50  48  93 CALM      30.10S
DUBOIS         CLEAR     55  54  96 E6        30.08R
CLEARFIELD     CLEAR     53  52  96 N6        30.10R
JOHNSTOWN      CLEAR     56  53  90 SE5       30.09S
ALTOONA        CLEAR     55  54  96 CALM      30.10R FOG
STATE COLLEGE  CLEAR     57  56  97 CALM      30.10R
WILLIAMSPORT   MOCLDY    61  59  93 CALM      30.07R FOG
SELINSGROVE    MOCLDY    60  58  92 CALM      30.09R
FT INDIANTOWN  CLOUDY    61  61 100 CALM      30.09S
CAPITAL CITY   CLEAR     61  58  90 E3        30.09R
HARRISBURG     PTCLDY    62  58  86 CALM      30.08R
YORK           MOCLDY    54  53  97 CALM      30.09R FOG
$$

PAZ038>040-043-044-047-048-054-055-060>062-067>071-020400-
EASTERN PENNSYLVANIA

CITY           SKY/WX    TMP DP  RH WIND       PRES   REMARKS
SCRANTON       MOCLDY    61  54  77 NE5       30.09S
MOUNT POCONO   CLOUDY    57  54  89 E7        30.11S
ALLENTOWN      CLOUDY    60  55  83 CALM      30.09S
QUAKERTOWN*    MOCLDY    59  57  94 CALM      30.10S
READING        CLEAR     62  55  77 CALM      30.08S
LANCASTER      CLOUDY    62  59  90 E5        30.08S
COATESVILLE    CLOUDY    61  57  88 CALM      30.10R
POTTSTOWN      MOCLDY    59  56  89 CALM      30.10S
BLUE BELL      CLOUDY    64  59  82 CALM      30.08S
DOYLESTOWN     MOCLDY    61  57  87 CALM      30.08S
WILLOW GROVE   NOT AVBL
NORTH PHILA    CLOUDY    66  56  70 N6        30.09S
PHILADELPHIA   MOCLDY    65  58  78 E7        30.07S
$$



USA.gov is the U.S. government's official web portal to all federal, state and local government web resources and services.